This demonstration page uses our WeatherBlox Daily Observations layout. Learn more.

Left ArrowRight Arrow

39.08367, -84.50855

Hourly Observations for January 6, 2015

Temp ( °F °C ) Dew Point ( °F °C ) Humidity (%) Winds ( mph kmh ) Pressure ( in mb ) Visibility ( mi km ) Precip ( " mm )
12:53 am 00:53 Cloudy 20 -6.7 14 -10 78 78 Calm 30.37 1028 8 12.87472 0 0
1:11 am 01:11 Cloudy with Light Snow 20 -6.7 14 -10 78 78 SSE 3 6 30.36 1028 2.5 4.02335 0 0.0254
1:49 am 01:49 Cloudy with Light Snow 19 -7 18 -8 93 93 NE 3 6 30.36 1028 3 4.82802 0 0.0254
1:53 am 01:53 Cloudy with Light Snow 20 -6.7 17 -8.3 89 89 NNE 5 7 30.34 1027 4 6.43736 0 0.0254
2:53 am 02:53 Cloudy 20 -6.7 16 -8.9 85 85 Calm 30.37 1029 10 16.0934 0.01 0.254
3:53 am 03:53 Cloudy 20 -6.7 17 -8.3 89 89 E 3 6 30.33 1027 10 16.0934 0 0
4:53 am 04:53 Cloudy 20 -6.7 17 -8.3 89 89 NE 3 6 30.3 1026 10 16.0934 0 0
5:53 am 05:53 Cloudy 20 -6.7 17 -8.3 89 89 NE 3 6 30.28 1026 10 16.0934 0 0
6:53 am 06:53 Cloudy 21 -6.1 17 -8.3 85 85 Calm 30.29 1026 10 16.0934 0 0
7:53 am 07:53 Cloudy 21 -6.1 18 -7.8 88 88 Calm 30.31 1026 10 16.0934 0 0
8:53 am 08:53 Cloudy 22 -5.6 18 -7.8 85 85 Calm 30.32 1027 10 16.0934 0 0
9:53 am 09:53 Cloudy 24 -4.4 17 -8.3 75 75 WSW 3 6 30.34 1027 10 16.0934 0 0.0254
10:53 am 10:53 Cloudy 25 -3.9 16 -8.9 69 69 W 10 17 30.35 1028 10 16.0934 0 0
11:53 am 11:53 Mostly Cloudy 26 -3.3 16 -8.9 66 66 W 9 15 30.35 1028 10 16.0934 0 0
12:53 pm 12:53 Mostly Cloudy 28 -2.2 15 -9.4 58 58 NW 10 17 30.34 1027 10 16.0934 0 0
1:53 pm 13:53 Cloudy 26 -3.3 14 -10 60 60 NW 9 15 30.32 1027 10 16.0934 0 0
2:53 pm 14:53 Cloudy 27 -2.8 15 -9.4 61 61 W 9 15 30.32 1027 10 16.0934 0 0
3:53 pm 15:53 Mostly Cloudy 27 -2.8 15 -9.4 61 61 W 10 17 30.33 1027 10 16.0934 0 0
4:53 pm 16:53 Mostly Sunny 25 -3.9 14 -10 63 63 W 12 19 30.34 1027 10 16.0934 0 0
5:53 pm 17:53 Clear 23 -5 14 -10 68 68 W 8 13 30.35 1028 10 16.0934 0 0
6:53 pm 18:53 Clear 22 -5.6 14 -10 71 71 W 8 13 30.35 1028 10 16.0934 0 0
7:53 pm 19:53 Clear 21 -6.1 13 -10.6 71 71 W 14 22 30.36 1028 10 16.0934 0 0
8:53 pm 20:53 Clear 21 -6.1 11 -11.7 65 65 W 14 22 30.36 1028 10 16.0934 0 0
9:53 pm 21:53 Mostly Clear 20 -6.7 10 -12.2 65 65 W 14 22 30.35 1028 10 16.0934 0 0
10:53 pm 22:53 Clear 19 -7.2 7 -13.9 59 59 W 15 24 30.35 1028 10 16.0934 0 0
11:53 pm 23:53 Cloudy 18 -7.8 7 -13.9 62 62 W 13 20 30.33 1027 10 16.0934 0 0

Powered by AerisWeather